C/2019 E3 ( ATLAS )

Japanese version
Home page
Updated on October 1, 2025

---------------------------------------------------------------------

* Profile

Discovery Date March 5, 2019
Magnitude 18.4 mag
Discoverer Asteroid Terrestrial-Impact Last Alert System (ATLAS) search program

* Pictures

* Orbital Elements

Epoch 2025 May 5.0 TT = JDT 2460800.5
T 2023 Nov. 15.60802 TT                                 Pike
q  10.3132431            (2000.0)            P               Q
z  +0.0001865      Peri.  280.71799     +0.15977853     +0.96221133
 +/-0.0000003      Node   347.19754     +0.26400280     -0.25688454
e   0.9980765      Incl.   84.31353     -0.95119574     +0.09033101
From 984 observations 2012 Mar. 19-2025 Jan. 17, mean residual 0".6.

* Finding Charts

* Magnitudes Graph

        m1 = 1.5 + 5 log d + 10.0 log r

---------------------------------------------------------------------

The orbital elements are published on M.P.E.C. 2025-C143.
The charts are made with StellaNavigator Ver.10 (AstroArts).
The magnitudes graphs are made with Comet for Windows.

---------------------------------------------------------------------

Copyright(C) Seiichi Yoshida (comet@aerith.net). All rights reserved.